LUCH 5V

Last updated on Fri Jul 10 2026 00:02:53 GMT+0000 (Coordinated Universal Time)

1 39727U 14023A 26189.85233375 -.00000257 00000+0 00000+0 0 9993 2 39727 5.1830 69.5287 0002698 69.4492 189.3250 1.00267122 44572
UTC large
Height (km)
Speed (km/s)
/
Latitude / Longitude
Inclination (degrees)
Orbital Period (minutes)
Azimuth
Elevation
Range (km)
Doppler Factor

Next 0 passes for location: London (51.5072 / 0.1276)

No passes found over London.
LUCH 5V